Weather Roundup
Issued by NWS

Home | Current Version | Previous Version | Graphics & Text | Print | Product List | Glossary Off
Versions: 1 2 3 4 5 6 7 8 9 10 11 12 13 14 15 16 17 18 19 20 21 22 23 24 25 26 27 28 29 30 31 32 33 34 35 36 37 38 39 40 41 42 43 44 45 46 47 48 49 50

000
NZUS93 KARX 290259
HRRWXR

CURRENT HOURLY OBSERVATIONS ACROSS
MUCH OF THE UPPER MISSISSIPPI VALLEY
NATIONAL WEATHER SERVICE LA CROSSE WI
1000 PM CDT THU MAY 28 2015


...SOUTHEAST MINNESOTA...


CITY           SKY/WX    TMP DP  RH WIND       PRES   REMARKS
ROCHESTER      MOCLDY    70  53  54 S10       29.99R
ROCHESTER/MAYO FAIR      73  52  48 S9G18     29.98R
WINONA         MOCLDY    72  55  56 CALM      29.97R
AUSTIN         MOCLDY    68  55  64 S8        29.97R
ALBERT LEA     MOCLDY    72  55  56 S9        29.96R
DODGE CENTER   MOCLDY    72  55  56 S13       29.97R
PRESTON        MOCLDY    68  53  58 S9        30.00R
OWATONNA       CLOUDY    72  52  49 S8        29.96R
FARIBAULT      CLOUDY    73  54  49 S10G18    29.95R
$$

...ELSEWHERE IN MINNESOTA...


CITY           SKY/WX    TMP DP  RH WIND       PRES   REMARKS
MINNEAPOLIS    CLOUDY    76  52  43 S13       29.93R
INTNL FALLS    RAIN      59  58  96 E5        29.87S FOG
DULUTH         CLOUDY    44  42  93 E9        29.95R FOG
RED WING       MOCLDY    73  54  49 S7        29.94R
REDWOOD FALLS  CLOUDY    71  59  65 S15       29.91R
MANKATO        CLOUDY    72  57  60 S12       29.94R
WORTHINGTON    MOCLDY    64  55  72 S14       29.94R
FAIRMONT       CLOUDY    70  57  64 S17G23    29.96R
$$

...SOUTHWEST WISCONSIN...


CITY           SKY/WX    TMP DP  RH WIND       PRES   REMARKS
LA CROSSE      PTCLDY    74  54  49 S7        29.97R
PRAIRIE DU CHI PTCLDY    68  54  60 E6        29.98S
BOSCOBEL       PTCLDY    63  58  83 CALM      30.00S
LONE ROCK      NOT AVBL
PLATTEVILLE    PTCLDY    69  56  62 SE6       30.02F
FORT MC COY    CLEAR     64  55  73 E3        30.01S
VIROQUA        FAIR      68  52  56 SE8       30.02R
WIS DELLS      CLEAR     67  53  61 S5        30.03S
$$

...ELSEWHERE IN WISCONSIN...


CITY           SKY/WX    TMP DP  RH WIND       PRES   REMARKS
MILWAUKEE      MOCLDY    65  54  67 SE9       30.08F
MADISON        MOCLDY    72  55  55 SE10      30.04R
GREEN BAY      CLEAR     69  53  56 S10       30.06S
EAU CLAIRE     NOT AVBL
BLACK RVR FLS  FAIR      63  53  68 SE3       29.98S
MEDFORD        PTCLDY    65  56  71 S7        30.02R
WAUSAU         PTCLDY    68  55  63 S7        30.02R
WIS RAPIDS     PTCLDY    68  53  58 SE5       30.03S
MARSHFIELD     PTCLDY    68  53  58 SE5       30.02R
RICE LAKE      MOCLDY    69  56  62 SE6       29.98R
$$

...NORTHEAST IOWA...


CITY           SKY/WX    TMP DP  RH WIND       PRES   REMARKS
DECORAH        MOCLDY    70  52  52 S7        29.98R
MASON CITY     CLOUDY    70  58  65 S10       29.98R
CHARLES CITY   MOCLDY    68  57  68 S8        29.98R
OELWEIN        NOT AVBL
$$

...ELSEWHERE IN IOWA...


CITY           SKY/WX    TMP DP  RH WIND       PRES   REMARKS
DES MOINES     CLOUDY    68  64  87 SE9       29.97S
IOWA CITY      CLOUDY    66  63  90 S7        30.03R
FORT DODGE     CLOUDY    70  61  73 S9        29.97S
$$

...NORTHERN ILLINOIS...


CITY           SKY/WX    TMP DP  RH WIND       PRES   REMARKS
CHICAGO-OHARE  MOCLDY    69  54  58 E7        30.08S
CHICAGO-MIDWAY MOCLDY    70  55  59 E7        30.08S
MOLINE         PTCLDY    67  58  72 W9        30.01F
ROCKFORD       MOCLDY    71  52  50 SE8       30.05F
PEORIA         MOCLDY    73  62  68 S5        30.05S
$$

NOTE: "FAIR" INDICATES FEW OR NO CLOUDS BELOW 12,000 FEET WITH NO
SIGNIFICANT WEATHER AND/OR OBSTRUCTIONS TO VISIBILITY. WIND
SPEEDS ARE IN MILES-PER-HOUR.



USA.gov is the U.S. government's official web portal to all federal, state and local government web resources and services.